datetime,inflow
1968-12-01,-32.22497
1968-12-02,458.91591
1968-12-03,299.55077
1968-12-04,356.60628
1968-12-05,450.12748
1968-12-06,290.29596
1968-12-07,433.44356
1968-12-08,368.17793
1968-12-09,438.28154
1968-12-10,336.65919
1968-12-11,566.68026
1968-12-12,432.3104
1968-12-13,453.1575
1968-12-14,469.718
1968-12-15,310.22316
1968-12-16,308.36024
1968-12-17,324.99373
1968-12-18,358.23379
1968-12-19,280.90255
1968-12-20,384.97716
1968-12-21,363.16773
1968-12-22,311.14013
1968-12-23,348.03485
1968-12-24,395.0445
1968-12-25,353.1002
1968-12-26,473.77583
1968-12-27,351.97703
1968-12-28,362.05327
1968-12-29,390.21695
1968-12-30,275.18155
1968-12-31,424.6283
1969-01-01,355.68087
1969-01-02,276.31504
1969-01-03,385.805
1969-01-04,304.32387
1969-01-05,250.76732
1969-01-06,477.30688
1969-01-07,238.3904
1969-01-08,292.0612
1969-01-09,363.38002
1969-01-10,375.53614
1969-01-11,191.21103
1969-01-12,408.73558
1969-01-13,329.07038
1969-01-14,379.19245
1969-01-15,572.14901
1969-01-16,320.1003
1969-01-17,375.59583
1969-01-18,360.47825
1969-01-19,330.3017
1969-01-20,420.72494
1969-01-21,400.99492
1969-01-22,630.86816
1969-01-23,408.28888
1969-01-24,345.5405
1969-01-25,564.56144
1969-01-26,291.38871
1969-01-27,426.17946
1969-01-28,338.13423
1969-01-29,398.22673
1969-01-30,288.2387
1969-01-31,209.82239
1969-02-01,302.36714
1969-02-02,209.45556
1969-02-03,286.49714
1969-02-04,192.02697
1969-02-05,349.08907
1969-02-06,377.68306
1969-02-07,446.95796
1969-02-08,379.33534
1969-02-09,277.06625
1969-02-10,378.03505
1969-02-11,271.70174
1969-02-12,294.62405
1969-02-13,377.57155
1969-02-14,442.56919
1969-02-15,387.77399
1969-02-16,418.74097
1969-02-17,350.44114
1969-02-18,291.86923
1969-02-19,278.92408
1969-02-20,447.89017
1969-02-21,313.36625
1969-02-22,360.96784
1969-02-23,343.52334
1969-02-24,436.19069
1969-02-25,436.52976
1969-02-26,470.66082
1969-02-27,369.92612
1969-02-28,326.49205
1969-03-01,299.97307
1969-03-02,368.07313
1969-03-03,310.36517
1969-03-04,419.0136
1969-03-05,362.57695
1969-03-06,289.71396
1969-03-07,485.95599
1969-03-08,415.44531
1969-03-09,326.90964
1969-03-10,300.72499
1969-03-11,328.43051
1969-03-12,369.37125
1969-03-13,300.66471
1969-03-14,264.73257
1969-03-15,297.63967
1969-03-16,347.07413
1969-03-17,294.73227
1969-03-18,151.36885
1969-03-19,468.31414
1969-03-20,330.78695
1969-03-21,320.36113
1969-03-22,414.25573
1969-03-23,429.34155
1969-03-24,348.81685
1969-03-25,189.39931
1969-03-26,377.28148
1969-03-27,320.99308
1969-03-28,364.63251
1969-03-29,428.72742
1969-03-30,500.89159
1969-03-31,570.50277
1969-04-01,1089.54924
1969-04-02,936.24012
1969-04-03,1105.25427
1969-04-04,1540.35962
1969-04-05,1537.80945
1969-04-06,1636.50574
1969-04-07,1551.99219
1969-04-08,1127.45959
1969-04-09,1194.7179
1969-04-10,1331.33398
1969-04-11,1312.85681
1969-04-12,1731.13745
1969-04-13,1486.05298
1969-04-14,1629.46509
1969-04-15,1505.39087
1969-04-16,1407.09802
1969-04-17,1300.62671
1969-04-18,1276.54187
1969-04-19,1428.91223
1969-04-20,1849.32288
1969-04-21,2440.90454
1969-04-22,2846.21143
1969-04-23,3098.91992
1969-04-24,3500.23999
1969-04-25,2780.19727
1969-04-26,3975.87695
1969-04-27,2297.89307
1969-04-28,2223.31421
1969-04-29,2577.98511
1969-04-30,2757.81958
1969-05-01,2966.86694
1969-05-02,3455.21191
1969-05-03,3637.64893
1969-05-04,3630.54102
1969-05-05,3278.06372
1969-05-06,3038.41748
1969-05-07,2951.08789
1969-05-08,2582.08301
1969-05-09,2443.14087
1969-05-10,2684.63818
1969-05-11,3064.729
1969-05-12,3343.29858
1969-05-13,3452.36133
1969-05-14,3321.64844
1969-05-15,3666.89038
1969-05-16,3369.95093
1969-05-17,3451.36865
1969-05-18,3799.57861
1969-05-19,4114.78564
1969-05-20,4242.21924
1969-05-21,4709.74463
1969-05-22,4781.77637
1969-05-23,4183.97266
1969-05-24,4434.19238
1969-05-25,4370.97607
1969-05-26,4583.24268
1969-05-27,5087.83496
1969-05-28,4954.53809
1969-05-29,4576.38135
1969-05-30,5051.15283
1969-05-31,4902.51709
1969-06-01,4289.22461
1969-06-02,3797.2793
1969-06-03,3686.79297
1969-06-04,3024.64038
1969-06-05,3337.26318
1969-06-06,3483.17773
1969-06-07,3774.30908
1969-06-08,3519.53003
1969-06-09,3487.2146
1969-06-10,3155.13623
1969-06-11,3246.21216
1969-06-12,2967.50244
1969-06-13,2507.87524
1969-06-14,2456.35596
1969-06-15,2508.67944
1969-06-16,2817.19019
1969-06-17,3109.77686
1969-06-18,3071.11621
1969-06-19,2677.22314
1969-06-20,2509.64209
1969-06-21,2507.05591
1969-06-22,2271.95337
1969-06-23,2342.17041
1969-06-24,3037.9209
1969-06-25,3448.21606
1969-06-26,3446.34741
1969-06-27,2842.33813
1969-06-28,2648.3374
1969-06-29,2575.1084
1969-06-30,2797.10107
1969-07-01,2948.93652
1969-07-02,3090.50952
1969-07-03,3085.56396
1969-07-04,3500.23999
1969-07-05,3457.92554
1969-07-06,3110.02661
1969-07-07,2788.74438
1969-07-08,2521.65479
1969-07-09,2179.65845
1969-07-10,2133.90601
1969-07-11,1888.24951
1969-07-12,1990.27881
1969-07-13,1967.96606
1969-07-14,2059.06641
1969-07-15,1986.1781
1969-07-16,2045.01221
1969-07-17,2037.19299
1969-07-18,1942.271
1969-07-19,2089.81055
1969-07-20,2337.05469
1969-07-21,2260.27271
1969-07-22,2077.64355
1969-07-23,1858.75269
1969-07-24,1956.44006
1969-07-25,1982.34839
1969-07-26,1865.32629
1969-07-27,1524.77307
1969-07-28,1716.36609
1969-07-29,2047.0343
1969-07-30,1347.70593
1969-07-31,1666.0498
1969-08-01,1498.08118
1969-08-02,1419.79553
1969-08-03,1242.1449
1969-08-04,1365.80811
1969-08-05,1233.77136
1969-08-06,1749.28174
1969-08-07,693.715515
1969-08-08,1118.70044
1969-08-09,1016.19104
1969-08-10,1200.44116
1969-08-11,967.109924
1969-08-12,1750.84534
1969-08-13,788.666321
1969-08-14,1472.88684
1969-08-15,962.753357
1969-08-16,920.908142
1969-08-17,1102.92163
1969-08-18,1072.23291
1969-08-19,1062.27979
1969-08-20,1097.01709
1969-08-21,1066.80103
1969-08-22,1098.66235
1969-08-23,919.056641
1969-08-24,907.152649
1969-08-25,955.900513
1969-08-26,919.001404
1969-08-27,844.889954
1969-08-28,763.697815
1969-08-29,960.510925
1969-08-30,859.584534
1969-08-31,738.651245
1969-09-01,820.702209
1969-09-02,652.460999
1969-09-03,642.690979
1969-09-04,543.872009
1969-09-05,702.851074
1969-09-06,549.58844
1969-09-07,656.319153
1969-09-08,635.354858
1969-09-09,820.415588
1969-09-10,793.085327
1969-09-11,604.667847
1969-09-12,792.914917
1969-09-13,600.267578
1969-09-14,653.746277
1969-09-15,706.022217
1969-09-16,790.703064
1969-09-17,745.993042
1969-09-18,731.793823
1969-09-19,696.69519
1969-09-20,899.671631
1969-09-21,817.072083
1969-09-22,1013.63763
1969-09-23,922.36908
1969-09-24,775.814636
1969-09-25,812.883545
1969-09-26,776.315186
1969-09-27,716.57312
1969-09-28,697.24115
1969-09-29,667.23468
1969-09-30,832.672058
1969-10-01,763.676086
1969-10-02,816.109314
1969-10-03,1361.85193
1969-10-04,1259.11084
1969-10-05,985.11676
1969-10-06,930.963379
1969-10-07,1204.12512
1969-10-08,1110.11316
1969-10-09,1216.18164
1969-10-10,1461.91418
1969-10-11,1305.16711
1969-10-12,1057.75366
1969-10-13,1133.34912
1969-10-14,1050.4502
1969-10-15,1640.3988
1969-10-16,1188.17188
1969-10-17,995.313538
1969-10-18,432.167572
1969-10-19,406.959625
1969-10-20,1970.69397
1969-10-21,1917.33228
1969-10-22,1393.86987
1969-10-23,1375.18542
1969-10-24,1056.27002
1969-10-25,1053.68884
1969-10-26,1038.65515
1969-10-27,1104.51233
1969-10-28,1364.92407
1969-10-29,849.107239
1969-10-30,969.916443
1969-10-31,983.097717
1969-11-01,950.83606
1969-11-02,993.190247
1969-11-03,736.041199
1969-11-04,816.737549
1969-11-05,816.450806
1969-11-06,1117.68945
1969-11-07,590.901245
1969-11-08,529.389587
1969-11-09,324.355988
1969-11-10,786.257507
1969-11-11,615.223633
1969-11-12,639.165833
1969-11-13,836.82196
1969-11-14,977.110107
1969-11-15,377.660309
1969-11-16,433.113464
1969-11-17,717.549561
1969-11-18,411.581299
1969-11-19,269.14856
1969-11-20,424.611542
1969-11-21,155.709167
1969-11-22,521.62677
1969-11-23,322.035217
1969-11-24,419.773865
1969-11-25,75.3641968
1969-11-26,16.3404083
1969-11-27,21.4108505
1969-11-28,197.578537
1969-11-29,437.490875
1969-11-30,340.687561
1969-12-01,389.118988
1969-12-02,526.504456
1969-12-03,571.551147
1969-12-04,569.505005
1969-12-05,569.475525
1969-12-06,406.6315
1969-12-07,420.932831
1969-12-08,409.394043
1969-12-09,216.672714
1969-12-10,552.911011
1969-12-11,356.284454
1969-12-12,533.965576
1969-12-13,359.744537
1969-12-14,310.072052
1969-12-15,493.329468
1969-12-16,363.629486
1969-12-17,146.616577
1969-12-18,256.897186
1969-12-19,339.35556
1969-12-20,131.480576
1969-12-21,167.525085
1969-12-22,814.170837
1969-12-23,729.248962
1969-12-24,321.067322
1969-12-25,336.474945
1969-12-26,323.42569
1969-12-27,319.328644
1969-12-28,399.048401
1969-12-29,56.654892
1969-12-30,223.115906
1969-12-31,127.193085
1970-01-01,446.546509
1970-01-02,220.552841
1970-01-03,223.008026
1970-01-04,307.075409
1970-01-05,254.072311
1970-01-06,245.181946
1970-01-07,260.144165
1970-01-08,213.410339
1970-01-09,279.167969
1970-01-10,290.508759
1970-01-11,287.259521
1970-01-12,454.921539
1970-01-13,320.749329
1970-01-14,397.473572
1970-01-15,565.073486
1970-01-16,470.194946
1970-01-17,407.924347
1970-01-18,430.357422
1970-01-19,277.21344
1970-01-20,279.78949
1970-01-21,562.838989
1970-01-22,416.8815
1970-01-23,445.67627
1970-01-24,286.325043
1970-01-25,550.720764
1970-01-26,1174.33179
1970-01-27,871.453674
1970-01-28,98.4314423
1970-01-29,38.4869766
1970-01-30,233.711197
1970-01-31,80.9415359
1970-02-01,196.67009
1970-02-02,334.332489
1970-02-03,368.108673
1970-02-04,363.81958
1970-02-05,228.448212
1970-02-06,461.554596
1970-02-07,307.341003
1970-02-08,330.655823
1970-02-09,326.740509
1970-02-10,370.921173
1970-02-11,388.427704
1970-02-12,390.840515
1970-02-13,463.48941
1970-02-14,504.848907
1970-02-15,500.834808
1970-02-16,300.9216
1970-02-17,538.368713
1970-02-18,442.626801
1970-02-19,469.331726
1970-02-20,323.140198
1970-02-21,453.476807
1970-02-22,726.368835
1970-02-23,280.026367
1970-02-24,459.835175
1970-02-25,498.501038
1970-02-26,533.724182
1970-02-27,498.001343
1970-02-28,500.248779
1970-03-01,499.357788
1970-03-02,602.841492
1970-03-03,639.52533
1970-03-04,510.953827
1970-03-05,557.735352
1970-03-06,515.632568
1970-03-07,532.729065
1970-03-08,587.858459
1970-03-09,587.813538
1970-03-10,659.484741
1970-03-11,541.709961
1970-03-12,518.644104
1970-03-13,505.371979
1970-03-14,519.848328
1970-03-15,622.934631
1970-03-16,649.011536
1970-03-17,532.357178
1970-03-18,565.965637
1970-03-19,451.543854
1970-03-20,498.20517
1970-03-21,671.434326
1970-03-22,805.302612
1970-03-23,780.611572
1970-03-24,959.005493
1970-03-25,1254.2937
1970-03-26,1045.97253
1970-03-27,1176.84436
1970-03-28,1251.50977
1970-03-29,939.467407
1970-03-30,1204.30566
1970-03-31,1069.33972
1970-04-01,1090.02014
1970-04-02,1089.69324
1970-04-03,1059.74109
1970-04-04,1066.77271
1970-04-05,1123.07837
1970-04-06,1278.5293
1970-04-07,1484.42212
1970-04-08,1660.95422
1970-04-09,2009.88843
1970-04-10,2303.98633
1970-04-11,2331.40088
1970-04-12,1609.77649
1970-04-13,1463.00818
1970-04-14,1473.63086
1970-04-15,1364.70361
1970-04-16,1555.39661
1970-04-17,1948.34631
1970-04-18,2096.53809
1970-04-19,1757.56995
1970-04-20,1437.22791
1970-04-21,1366.94604
1970-04-22,1405.79272
1970-04-23,1494.86426
1970-04-24,1431.17004
1970-04-25,1974.72827
1970-04-26,2649.67334
1970-04-27,3615.36743
1970-04-28,3677.62891
1970-04-29,2733.94604
1970-04-30,2137.76904
1970-05-01,1999.52185
1970-05-02,2056.39038
1970-05-03,2265.62085
1970-05-04,3161.08936
1970-05-05,3990.14502
1970-05-06,4671.98975
1970-05-07,5431.03857
1970-05-08,5363.24805
1970-05-09,5049.17383
1970-05-10,4768.15869
1970-05-11,5541.44482
1970-05-12,6754.53369
1970-05-13,7063.58398
1970-05-14,6972.5835
1970-05-15,6677.90039
1970-05-16,6683.09619
1970-05-17,7864.13037
1970-05-18,8778.07227
1970-05-19,9072.23828
1970-05-20,8801.78418
1970-05-21,8555.13867
1970-05-22,8680.84277
1970-05-23,8676.88184
1970-05-24,8181.35791
1970-05-25,7829.98145
1970-05-26,7997.64648
1970-05-27,8110.2583
1970-05-28,7968.95557
1970-05-29,6983.88037
1970-05-30,6777.0415
1970-05-31,6432.49219
1970-06-01,6017.57617
1970-06-02,5431.44971
1970-06-03,5587.29395
1970-06-04,5596.95508
1970-06-05,5273.01855
1970-06-06,4922.76709
1970-06-07,4968.87646
1970-06-08,5193.81934
1970-06-09,5196.7041
1970-06-10,5140.57227
1970-06-11,5220.29248
1970-06-12,4543.92188
1970-06-13,4152.53223
1970-06-14,3832.14185
1970-06-15,4045.6897
1970-06-16,4018.13208
1970-06-17,4105.49414
1970-06-18,4320.41797
1970-06-19,4548.67773
1970-06-20,4800.7168
1970-06-21,4905.95996
1970-06-22,5190.83789
1970-06-23,5202.60742
1970-06-24,5391.75684
1970-06-25,5412.61426
1970-06-26,5129.62451
1970-06-27,4168.06299
1970-06-28,4030.13574
1970-06-29,4713.14404
1970-06-30,4311.60498
1970-07-01,3837.58716
1970-07-02,3198.47681
1970-07-03,3204.20435
1970-07-04,2921.41064
1970-07-05,3080.51782
1970-07-06,3184.70093
1970-07-07,3129.7749
1970-07-08,3343.2251
1970-07-09,3421.13916
1970-07-10,3239.68848
1970-07-11,2498.90698
1970-07-12,2099.69873
1970-07-13,1923.08655
1970-07-14,2146.25928
1970-07-15,1867.59656
1970-07-16,1774.37756
1970-07-17,1747.03003
1970-07-18,1884.02881
1970-07-19,1918.03113
1970-07-20,1824.26526
1970-07-21,1613.78479
1970-07-22,1931.88696
1970-07-23,1842.25159
1970-07-24,1829.8186
1970-07-25,1636.854
1970-07-26,1772.99902
1970-07-27,1634.8031
1970-07-28,1695.23633
1970-07-29,1501.01575
1970-07-30,1307.47168
1970-07-31,1219.5791
1970-08-01,1283.51147
1970-08-02,1148.00977
1970-08-03,1342.29053
1970-08-04,1268.2168
1970-08-05,1478.65833
1970-08-06,1273.7793
1970-08-07,1467.27393
1970-08-08,1295.3302
1970-08-09,1314.47095
1970-08-10,1263.42188
1970-08-11,1134.01526
1970-08-12,1775.90076
1970-08-13,887.524109
1970-08-14,1304.68616
1970-08-15,1064.4397
1970-08-16,547.930908
1970-08-17,1583.14563
1970-08-18,1296.53381
1970-08-19,1218.04651
1970-08-20,1717.02197
1970-08-21,1936.13171
1970-08-22,1563.66443
1970-08-23,1594.99927
1970-08-24,1452.51709
1970-08-25,1346.67639
1970-08-26,1299.63196
1970-08-27,1252.58643
1970-08-28,1409.55273
1970-08-29,1266.85864
1970-08-30,1383.19226
1970-08-31,1313.74097
1970-09-01,1434.16968
1970-09-02,1360.10791
1970-09-03,1385.33386
1970-09-04,1365.75403
1970-09-05,1696.76465
1970-09-06,3051.61841
1970-09-07,2686.60132
1970-09-08,2267.21484
1970-09-09,1869.56116
1970-09-10,1624.25171
1970-09-11,1473.0863
1970-09-12,2459.41064
1970-09-13,3680.81787
1970-09-14,3184.72754
1970-09-15,2650.24194
1970-09-16,2385.36792
1970-09-17,2030.86768
1970-09-18,1865.82031
1970-09-19,2132.32397
1970-09-20,2008.4187
1970-09-21,1348.73145
1970-09-22,1415.14148
1970-09-23,1314.78149
1970-09-24,1189.64197
1970-09-25,1295.23682
1970-09-26,1668.39429
1970-09-27,1613.74255
1970-09-28,1244.79346
1970-09-29,1036.55457
1970-09-30,956.674255
1970-10-01,1127.87134
1970-10-02,862.920837
1970-10-03,886.633789
1970-10-04,1051.81921
1970-10-05,861.093628
1970-10-06,934.077332
1970-10-07,702.151733
1970-10-08,960.505676
1970-10-09,1004.22693
1970-10-10,1244.29504
1970-10-11,1051.13306
1970-10-12,1111.40076
1970-10-13,1158.54602
1970-10-14,1132.00317
1970-10-15,1179.84302
1970-10-16,881.930176
1970-10-17,1038.89478
1970-10-18,937.30719
1970-10-19,901.154907
1970-10-20,984.16449
1970-10-21,972.179993
1970-10-22,1030.08008
1970-10-23,973.354492
1970-10-24,1040.69226
1970-10-25,994.207764
1970-10-26,960.893555
1970-10-27,795.676453
1970-10-28,738.249451
1970-10-29,780.844177
1970-10-30,858.190247
1970-10-31,841.325073
1970-11-01,911.591125
1970-11-02,749.273865
1970-11-03,747.464844
1970-11-04,715.032288
1970-11-05,664.289185
1970-11-06,817.448669
1970-11-07,795.479004
1970-11-08,933.271729
1970-11-09,767.742798
1970-11-10,786.330688
1970-11-11,852.999939
1970-11-12,788.588074
1970-11-13,1045.10474
1970-11-14,505.177979
1970-11-15,150.999237
1970-11-16,1208.87781
1970-11-17,801.069885
1970-11-18,850.250305
1970-11-19,1118.11401
1970-11-20,143.092453
1970-11-21,586.3148189999999
1970-11-22,748.556946
1970-11-23,865.170898
1970-11-24,752.23468
1970-11-25,894.497986
1970-11-26,1384.89063
1970-11-27,879.562073
1970-11-28,912.45343
1970-11-29,827.438293
1970-11-30,882.229065
1970-12-01,340.155243
1970-12-02,385.775116
1970-12-03,667.511963
1970-12-04,755.640442
1970-12-05,768.649292
1970-12-06,594.204956
1970-12-07,570.694275
1970-12-08,739.14502
1970-12-09,811.425537
1970-12-10,597.215942
1970-12-11,944.011414
1970-12-12,576.632263
1970-12-13,536.577637
1970-12-14,530.477844
1970-12-15,531.735718
1970-12-16,495.180786
1970-12-17,167.881287
1970-12-18,695.194824
1970-12-19,655.927795
1970-12-20,560.039124
1970-12-21,478.547424
1970-12-22,515.21759
1970-12-23,585.47998
1970-12-24,332.95282
1970-12-25,479.405762
1970-12-26,234.786392
1970-12-27,610.411011
1970-12-28,533.962891
1970-12-29,309.984619
1970-12-30,469.261841
1970-12-31,667.958313
1971-01-01,433.046417
1971-01-02,496.909363
1971-01-03,500.841919
1971-01-04,484.607635
1971-01-05,363.824219
1971-01-06,331.140869
1971-01-07,153.825439
1971-01-08,445.695099
1971-01-09,375.200653
1971-01-10,579.285828
1971-01-11,495.463654
1971-01-12,428.14978
1971-01-13,413.52063
1971-01-14,579.287231
1971-01-15,487.679321
1971-01-16,431.679657
1971-01-17,547.363586
1971-01-18,672.135986
1971-01-19,877.636108
1971-01-20,747.304199
1971-01-21,870.343567
1971-01-22,732.862
1971-01-23,526.274536
1971-01-24,621.175171
1971-01-25,498.023956
1971-01-26,636.0271
1971-01-27,643.894714
1971-01-28,662.072205
1971-01-29,421.92453
1971-01-30,596.917725
1971-01-31,575.982422
1971-02-01,678.660461
1971-02-02,833.646606
1971-02-03,749.313538
1971-02-04,674.340271
1971-02-05,839.172119
1971-02-06,835.929626
1971-02-07,76.0021439
1971-02-08,688.604858
1971-02-09,605.545532
1971-02-10,668.710815
1971-02-11,649.742859
1971-02-12,651.304932
1971-02-13,661.544312
1971-02-14,646.402405
1971-02-15,662.928284
1971-02-16,723.063843
1971-02-17,566.825806
1971-02-18,831.44635
1971-02-19,671.641052
1971-02-20,667.525452
1971-02-21,530.578308
1971-02-22,487.827515
1971-02-23,567.967224
1971-02-24,628.364868
1971-02-25,582.632996
1971-02-26,414.847748
1971-02-27,460.053406
1971-02-28,420.342194
1971-03-01,454.421844
1971-03-02,353.982697
1971-03-03,113.034515
1971-03-04,845.05957
1971-03-05,609.835205
1971-03-06,512.439514
1971-03-07,316.862823
1971-03-08,421.798065
1971-03-09,522.040527
1971-03-10,507.773468
1971-03-11,459.697845
1971-03-12,558.902527
1971-03-13,738.651733
1971-03-14,612.73053
1971-03-15,519.040833
1971-03-16,450.855042
1971-03-17,612.492615
1971-03-18,543.631592
1971-03-19,604.645386
1971-03-20,764.530273
1971-03-21,904.933289
1971-03-22,1339.9436
1971-03-23,1618.93811
1971-03-24,1838.72888
1971-03-25,1527.41003
1971-03-26,1824.13025
1971-03-27,2767.20288
1971-03-28,2448.50269
1971-03-29,1872.57275
1971-03-30,1950.37659
1971-03-31,2031.40942
1971-04-01,1671.0199
1971-04-02,1344.98865
1971-04-03,1524.75012
1971-04-04,1580.23779
1971-04-05,1537.13037
1971-04-06,1426.82166
1971-04-07,1800.48608
1971-04-08,1771.35608
1971-04-09,1808.25305
1971-04-10,2153.35889
1971-04-11,2387.84106
1971-04-12,2559.91943
1971-04-13,2809.0354
1971-04-14,2991.05762
1971-04-15,2861.78809
1971-04-16,2678.99048
1971-04-17,2835.1687
1971-04-18,2652.10425
1971-04-19,2286.25049
1971-04-20,2049.39233
1971-04-21,2024.02319
1971-04-22,1944.6311
1971-04-23,1866.49658
1971-04-24,1760.48022
1971-04-25,1620.15552
1971-04-26,1753.21582
1971-04-27,1577.14941
1971-04-28,1549.82434
1971-04-29,1501.57581
1971-04-30,1542.67334
1971-05-01,1702.89551
1971-05-02,1765.17383
1971-05-03,2175.39771
1971-05-04,2455.54248
1971-05-05,2448.67993
1971-05-06,2375.08154
1971-05-07,2316.16528
1971-05-08,2480.65894
1971-05-09,2354.9751
1971-05-10,2290.62305
1971-05-11,2270.59204
1971-05-12,2200.11157
1971-05-13,2462.77344
1971-05-14,2635.9165
1971-05-15,2869.84814
1971-05-16,3098.35181
1971-05-17,3495.99976
1971-05-18,3341.79858
1971-05-19,3045.49756
1971-05-20,2823.79395
1971-05-21,2605.99609
1971-05-22,2427.76172
1971-05-23,2596.78149
1971-05-24,2422.06006
1971-05-25,2410.05151
1971-05-26,2477.25366
1971-05-27,2842.71436
1971-05-28,3439.1875
1971-05-29,3846.41162
1971-05-30,3781.21826
1971-05-31,3089.50513
1971-06-01,3094.99731
1971-06-02,2905.6897
1971-06-03,3149.14966
1971-06-04,2608.58325
1971-06-05,4250.71826
1971-06-06,3425.63745
1971-06-07,3839.39136
1971-06-08,4082.94263
1971-06-09,4305.98926
1971-06-10,4321.1167
1971-06-11,3931.24512
1971-06-12,3984.43481
1971-06-13,3789.1123
1971-06-14,3899.104
1971-06-15,4522.48926
1971-06-16,5004.19775
1971-06-17,5475.05371
1971-06-18,5657.68506
1971-06-19,5352.7959
1971-06-20,5544.76172
1971-06-21,5356.49512
1971-06-22,5403.47461
1971-06-23,5348.28418
1971-06-24,5054.74463
1971-06-25,4910.5332
1971-06-26,4576.52295
1971-06-27,4353.51025
1971-06-28,4131.49414
1971-06-29,3682.52832
1971-06-30,3516.92358
1971-07-01,3315.00293
1971-07-02,3085.45605
1971-07-03,3253.84717
1971-07-04,2952.35913
1971-07-05,2647.2124
1971-07-06,2748.6543
1971-07-07,2918.54175
1971-07-08,2802.75928
1971-07-09,2653.96484
1971-07-10,2516.90674
1971-07-11,2287.51074
1971-07-12,2089.28809
1971-07-13,2020.63257
1971-07-14,2009.25061
1971-07-15,1999.1604
1971-07-16,1882.52881
1971-07-17,1818.46777
1971-07-18,1937.17102
1971-07-19,2150.96997
1971-07-20,2062.89087
1971-07-21,2256.95483
1971-07-22,2270.05078
1971-07-23,2532.02417
1971-07-24,2223.92822
1971-07-25,2188.89111
1971-07-26,1938.04639
1971-07-27,1905.5116
1971-07-28,1759.18774
1971-07-29,1710.29834
1971-07-30,1498.00549
1971-07-31,1445.46387
1971-08-01,1487.63916
1971-08-02,1435.729
1971-08-03,1447.48779
1971-08-04,1597.46021
1971-08-05,1401.66199
1971-08-06,1553.87793
1971-08-07,1366.13794
1971-08-08,1329.85754
1971-08-09,1274.46301
1971-08-10,1405.55225
1971-08-11,1102.61572
1971-08-12,1209.69092
1971-08-13,1251.13416
1971-08-14,1357.2738
1971-08-15,1243.46887
1971-08-16,1379.26575
1971-08-17,980.075684
1971-08-18,1389.69019
1971-08-19,1326.96741
1971-08-20,1377.02576
1971-08-21,1589.91577
1971-08-22,1334.73267
1971-08-23,1366.88477
1971-08-24,1328.90356
1971-08-25,1482.41724
1971-08-26,1452.97705
1971-08-27,1756.63367
1971-08-28,1710.07788
1971-08-29,1571.61548
1971-08-30,1712.77344
1971-08-31,1489.70203
1971-09-01,1562.61011
1971-09-02,1373.4176
1971-09-03,1440.02087
1971-09-04,1286.14807
1971-09-05,1369.22571
1971-09-06,1374.72571
1971-09-07,1291.30847
1971-09-08,983.150696
1971-09-09,1135.64282
1971-09-10,610.378723
1971-09-11,832.375061
1971-09-12,735.136169
1971-09-13,677.692383
1971-09-14,681.82251
1971-09-15,623.43866
1971-09-16,539.582336
1971-09-17,691.315918
1971-09-18,493.152649
1971-09-19,569.827271
1971-09-20,582.336853
1971-09-21,585.996643
1971-09-22,659.707397
1971-09-23,606.810425
1971-09-24,545.474487
1971-09-25,556.264038
1971-09-26,458.245178
1971-09-27,385.680817
1971-09-28,570.276245
1971-09-29,565.368469
1971-09-30,665.007385
1971-10-01,583.802612
1971-10-02,595.295166
1971-10-03,623.681274
1971-10-04,608.165222
1971-10-05,373.108643
1971-10-06,876.508057
1971-10-07,588.332458
1971-10-08,541.287537
1971-10-09,610.773743
1971-10-10,549.317993
1971-10-11,500.032654
1971-10-12,539.781067
1971-10-13,869.499084
1971-10-14,463.022827
1971-10-15,578.71521
1971-10-16,643.011292
1971-10-17,1046.04004
1971-10-18,1046.9054
1971-10-19,1032.00171
1971-10-20,1040.93164
1971-10-21,977.830017
1971-10-22,1394.03601
1971-10-23,789.575806
1971-10-24,1130.78967
1971-10-25,1022.99072
1971-10-26,1026.0647
1971-10-27,1161.76135
1971-10-28,1044.09216
1971-10-29,1126.09595
1971-10-30,1028.28699
1971-10-31,953.539795
1971-11-01,1115.8479
1971-11-02,1010.71344
1971-11-03,944.434509
1971-11-04,1046.35034
1971-11-05,989.375916
1971-11-06,1221.2627
1971-11-07,987.0448
1971-11-08,1062.52319
1971-11-09,1024.41736
1971-11-10,1182.21973
1971-11-11,952.801514
1971-11-12,1062.42188
1971-11-13,1134.15259
1971-11-14,1026.11218
1971-11-15,1020.28156
1971-11-16,963.467346
1971-11-17,776.26178
1971-11-18,758.677673
1971-11-19,1139.75696
1971-11-20,586.595154
1971-11-21,208.072006
1971-11-22,268.376495
1971-11-23,570.316406
1971-11-24,527.380066
1971-11-25,525.803406
1971-11-26,525.943542
1971-11-27,619.637695
1971-11-28,671.850159
1971-11-29,507.082245
1971-11-30,455.132416
1971-12-01,533.713501
1971-12-02,410.565338
1971-12-03,543.784668
1971-12-04,411.566376
1971-12-05,375.611359
1971-12-06,519.307434